TimeEDT,TemperatureF,Dew PointF,Humidity,Sea Level PressureIn,VisibilityMPH,Wind Direction,Wind SpeedMPH,Gust SpeedMPH,PrecipitationIn,Events,Conditions,WindDirDegrees,DateUTC
12:15 AM,53.8,51.6,92,30.21,10.0,Calm,Calm,-,N/A,,Clear,0,2012-10-23 04:15:00
12:35 AM,53.1,50.9,92,30.20,10.0,Calm,Calm,-,N/A,,Clear,0,2012-10-23 04:35:00
12:55 AM,51.6,50.0,94,30.21,10.0,Calm,Calm,-,N/A,,Clear,0,2012-10-23 04:55:00
1:15 AM,50.9,49.5,95,30.20,10.0,Calm,Calm,-,N/A,,Clear,0,2012-10-23 05:15:00
1:35 AM,50.0,49.1,97,30.19,7.0,Calm,Calm,-,N/A,,Clear,0,2012-10-23 05:35:00
1:55 AM,50.0,49.1,97,30.19,10.0,Calm,Calm,-,N/A,,Clear,0,2012-10-23 05:55:00
2:15 AM,49.6,48.6,96,30.19,10.0,Calm,Calm,-,N/A,,Clear,0,2012-10-23 06:15:00
2:35 AM,49.3,47.8,95,30.18,10.0,Calm,Calm,-,N/A,,Clear,0,2012-10-23 06:35:00
2:55 AM,49.1,48.4,97,30.18,10.0,Calm,Calm,-,N/A,,Clear,0,2012-10-23 06:55:00
3:15 AM,48.4,47.7,97,30.18,10.0,Calm,Calm,-,N/A,,Clear,0,2012-10-23 07:15:00
3:55 AM,48.2,47.3,97,30.17,10.0,Calm,Calm,-,N/A,,Clear,0,2012-10-23 07:55:00
4:15 AM,48.2,46.8,95,30.17,10.0,Calm,Calm,-,N/A,,Clear,0,2012-10-23 08:15:00
4:35 AM,47.8,46.9,97,30.18,10.0,Calm,Calm,-,N/A,,Clear,0,2012-10-23 08:35:00
4:55 AM,47.3,46.6,97,30.17,10.0,Calm,Calm,-,N/A,,Clear,0,2012-10-23 08:55:00
5:15 AM,47.7,46.4,95,30.17,10.0,Calm,Calm,-,N/A,,Clear,0,2012-10-23 09:15:00
5:35 AM,46.4,45.7,97,30.18,10.0,NW,3.5,-,N/A,,Clear,310,2012-10-23 09:35:00
5:55 AM,46.0,45.3,97,30.18,10.0,Calm,Calm,-,N/A,,Clear,0,2012-10-23 09:55:00
6:15 AM,46.2,45.1,96,30.18,10.0,Calm,Calm,-,N/A,,Clear,0,2012-10-23 10:15:00
6:35 AM,46.4,45.9,98,30.19,10.0,NNW,4.6,-,N/A,,Clear,330,2012-10-23 10:35:00
6:55 AM,46.4,45.9,98,30.19,10.0,NNW,3.5,-,N/A,,Clear,330,2012-10-23 10:55:00
7:35 AM,46.0,45.1,97,30.21,7.0,NW,3.5,-,N/A,,Clear,320,2012-10-23 11:35:00
7:55 AM,45.1,44.6,98,30.21,10.0,Calm,Calm,-,N/A,,Clear,0,2012-10-23 11:55:00
8:15 AM,46.2,45.5,97,30.21,10.0,Calm,Calm,-,N/A,,Clear,0,2012-10-23 12:15:00
8:35 AM,48.4,46.9,95,30.22,10.0,Calm,Calm,-,N/A,,Clear,0,2012-10-23 12:35:00
8:55 AM,50.9,49.3,94,30.22,10.0,Calm,Calm,-,N/A,,Clear,0,2012-10-23 12:55:00
9:15 AM,53.6,50.0,88,30.22,10.0,Calm,Calm,-,N/A,,Clear,0,2012-10-23 13:15:00
9:35 AM,55.6,50.9,84,30.23,10.0,Calm,Calm,-,N/A,,Clear,0,2012-10-23 13:35:00
9:55 AM,57.7,51.4,79,30.23,10.0,Calm,Calm,-,N/A,,Clear,0,2012-10-23 13:55:00
10:15 AM,60.3,52.9,77,30.23,10.0,Calm,Calm,-,N/A,,Clear,0,2012-10-23 14:15:00
10:35 AM,61.9,53.1,73,30.22,10.0,Calm,Calm,-,N/A,,Clear,0,2012-10-23 14:35:00
10:55 AM,64.2,52.9,67,30.22,10.0,Calm,Calm,-,N/A,,Clear,0,2012-10-23 14:55:00
11:15 AM,66.4,53.2,63,30.22,10.0,Calm,Calm,-,N/A,,Clear,0,2012-10-23 15:15:00
11:55 AM,70.0,54.3,57,30.21,10.0,SW,3.5,-,N/A,,Clear,230,2012-10-23 15:55:00
12:15 PM,71.2,52.9,52,30.21,10.0,SW,5.8,-,N/A,,Clear,230,2012-10-23 16:15:00
12:35 PM,72.5,53.1,50,30.19,10.0,SSW,5.8,-,N/A,,Clear,200,2012-10-23 16:35:00
12:55 PM,73.6,52.9,48,30.19,10.0,SSW,8.1,-,N/A,,Clear,210,2012-10-23 16:55:00
1:15 PM,74.7,51.4,44,30.17,10.0,South,9.2,-,N/A,,Clear,180,2012-10-23 17:15:00
1:35 PM,74.7,50.5,43,30.16,10.0,SSW,5.8,-,N/A,,Clear,200,2012-10-23 17:35:00
1:55 PM,75.6,50.5,41,30.15,10.0,WSW,4.6,-,N/A,,Clear,240,2012-10-23 17:55:00
2:15 PM,76.5,50.5,40,30.14,10.0,South,6.9,-,N/A,,Clear,190,2012-10-23 18:15:00
2:35 PM,76.3,50.4,40,30.14,10.0,South,6.9,-,N/A,,Clear,190,2012-10-23 18:35:00
2:55 PM,77.2,50.9,40,30.13,10.0,South,9.2,18.4,N/A,,Clear,170,2012-10-23 18:55:00
3:15 PM,77.2,50.5,39,30.13,10.0,South,8.1,-,N/A,,Clear,190,2012-10-23 19:15:00
3:55 PM,77.4,50.4,39,30.12,10.0,South,6.9,-,N/A,,Clear,180,2012-10-23 19:55:00
4:15 PM,77.5,51.6,40,30.12,10.0,SSW,5.8,-,N/A,,Clear,200,2012-10-23 20:15:00
4:35 PM,77.0,51.6,41,30.12,10.0,South,6.9,-,N/A,,Clear,180,2012-10-23 20:35:00
4:55 PM,77.0,52.3,42,30.12,10.0,South,11.5,-,N/A,,Clear,180,2012-10-23 20:55:00
5:15 PM,76.1,52.2,43,30.12,10.0,South,9.2,-,N/A,,Clear,180,2012-10-23 21:15:00
5:35 PM,75.4,51.6,43,30.12,10.0,South,6.9,-,N/A,,Clear,190,2012-10-23 21:35:00
5:55 PM,73.6,51.3,45,30.12,10.0,South,6.9,-,N/A,,Clear,190,2012-10-23 21:55:00
6:15 PM,72.3,51.1,47,30.12,10.0,South,3.5,-,N/A,,Clear,190,2012-10-23 22:15:00
6:35 PM,71.4,51.3,49,30.13,10.0,South,3.5,-,N/A,,Clear,180,2012-10-23 22:35:00
6:55 PM,70.7,51.3,50,30.13,10.0,South,4.6,-,N/A,,Clear,170,2012-10-23 22:55:00
7:15 PM,70.2,51.1,51,30.14,10.0,SE,3.5,-,N/A,,Clear,140,2012-10-23 23:15:00
7:35 PM,68.0,51.4,55,30.14,10.0,SSE,3.5,-,N/A,,Clear,150,2012-10-23 23:35:00
7:55 PM,66.6,51.8,59,30.14,10.0,South,5.8,-,N/A,,Clear,180,2012-10-23 23:55:00
8:15 PM,64.8,52.3,64,30.15,10.0,Calm,Calm,-,N/A,,Clear,0,2012-10-24 00:15:00
8:35 PM,64.8,52.2,64,30.14,10.0,Calm,Calm,-,N/A,,Clear,0,2012-10-24 00:35:00
8:55 PM,61.5,52.2,71,30.14,10.0,Calm,Calm,-,N/A,,Clear,0,2012-10-24 00:55:00
9:15 PM,60.1,52.3,76,30.15,10.0,Calm,Calm,-,N/A,,Clear,0,2012-10-24 01:15:00
9:35 PM,61.0,53.6,77,30.16,10.0,Calm,Calm,-,N/A,,Clear,0,2012-10-24 01:35:00
9:55 PM,57.9,52.7,83,30.16,10.0,Calm,Calm,-,N/A,,Clear,0,2012-10-24 01:55:00
10:15 PM,58.1,53.1,83,30.16,10.0,Calm,Calm,-,N/A,,Clear,0,2012-10-24 02:15:00
10:35 PM,56.5,52.7,87,30.17,10.0,Calm,Calm,-,N/A,,Clear,0,2012-10-24 02:35:00
10:55 PM,54.5,52.7,94,30.17,10.0,NW,4.6,-,N/A,,Clear,320,2012-10-24 02:55:00
11:15 PM,54.5,52.7,94,30.17,10.0,NNW,3.5,-,N/A,,Clear,340,2012-10-24 03:15:00
11:35 PM,58.3,53.1,83,30.17,10.0,Calm,Calm,-,N/A,,Clear,0,2012-10-24 03:35:00
11:55 PM,55.4,52.2,89,30.17,10.0,Calm,Calm,-,N/A,,Clear,0,2012-10-24 03:55:00